Location: Asheville, NC
(35.6000°N, 82.5500°W)
Time: 18:45:39
(UTC-05:00)

Vanguard 1 - Pass Details

Date: 16 February 2018
Orbit: 650 x 3833 km, 34.2° (Epoch: 16 February)

Event Time Altitude Azimuth Distance (km) Brightness Sun altitude
Rises 22:03:00 0° 273° (W) 3,051 13.3 -46.7°
Enters shadow 22:03:46 - 270° (W) 2,758 13.0 -46.8°
Reaches altitude 10° 22:05:48 10° 257° (WSW) 2,047 - -47.2°
Maximum altitude 22:09:11 21° 206° (SSW) 1,452 - -47.8°
Drops below altitude 10° 22:12:50 10° 156° (SSE) 2,227 - -48.5°
Sets 22:16:03 0° 140° (SE) 3,412 - -49.1°
